Flag for Netherlands Weather past 2 weeks in Ede, Netherlands

Now
61 °F

Passing clouds.


Feels Like: 61 °F
Forecast: 57 / 69 °F
Wind: 7 mph from South

Location: Deelen

Current Time: Aug 28, 2014 at 9:42:01 AM

Latest Report: Aug 28, 2014 at 8:55 AM


Visibility: N/A

Pressure: 29.98 "Hg

Humidity: 88%

Dew point: 57 °F

Location of EdeLocation

Historic Weather in Ede — Graph

°F

Ede temperature yesterday

Maximum temperature yesterday: 70 °F (at 3:55 PM)
Minimum temperature yesterday: 43 °F (at 6:55 AM)
Average temperature yesterday: 57 °F

Past Weeks' High & Low Weather Summary

 TemperatureHumidityPressure
High70 °F (Aug 13, 2:25 PM)100% (Aug 14, 6:25 AM)30.09 "Hg (Aug 14, 6:25 AM)
Low43 °F (Aug 25, 12:55 AM)49% (Aug 23, 5:55 PM)29.62 "Hg (Aug 18, 2:55 AM)
Average56 °F85%29.87 "Hg
* Reported Aug 13 8:25 AM — Aug 28 8:55 AM, Ede, Weather by CustomWeather, © 2014

Note: Actual official high and low records may vary slightly from our data, if they occured in-between our weather recording intervals... More about our weather records

Advertising

Ede weather history for previous 24 hours

 ConditionsComfort  
Time TempWeatherWind HumidityBarometerVisibility
8:55 AM
Aug 28
61 °FPassing clouds.7 mph88%29.98 "HgN/A
8:25 AM57 °FPassing clouds.5 mph94%29.98 "HgN/A
7:55 AM55 °FFog.5 mph94%29.95 "Hg4 mi
7:25 AM54 °FFog.3 mph94%29.98 "Hg4 mi
6:55 AM54 °FFog.2 mph94%29.98 "Hg4 mi
6:25 AM54 °FFog.3 mph94%29.98 "Hg4 mi
5:55 AM54 °FFog.3 mph94%29.98 "Hg6 mi
5:25 AM54 °FPartly cloudy.3 mph94%29.98 "HgN/A
4:55 AM54 °FPassing clouds.5 mph94%29.98 "HgN/A
4:25 AM55 °FPassing clouds.5 mph82%29.98 "HgN/A
3:55 AM55 °FPassing clouds.5 mph82%29.98 "HgN/A
3:25 AM55 °FPassing clouds.5 mph82%29.98 "HgN/A
2:55 AM55 °FPassing clouds.3 mph82%29.98 "HgN/A
2:25 AM57 °FPassing clouds.3 mph77%29.98 "HgN/A
1:55 AM55 °FCool.3 mph82%30.01 "HgN/A
1:25 AM55 °FCool.2 mph82%30.01 "HgN/A
12:55 AM57 °FCool.7 mph72%30.01 "HgN/A
12:25 AM55 °FCool.2 mph82%30.01 "HgN/A
11:55 PM
Aug 27
55 °FCool.3 mph82%30.01 "HgN/A
11:25 PM55 °FPassing clouds.5 mph77%30.01 "HgN/A
10:55 PM57 °FCool.3 mph77%30.01 "HgN/A
10:25 PM57 °FPassing clouds.5 mph77%30.01 "HgN/A
9:55 PM57 °FPassing clouds.3 mph77%30.01 "HgN/A
9:25 PM55 °FPassing clouds.3 mph88%30.01 "HgN/A
8:55 PM57 °FPassing clouds.No wind82%30.01 "HgN/A
7:55 PM64 °FMild.3 mph64%30.01 "HgN/A
7:25 PM66 °FMild.6 mph56%30.01 "HgN/A
6:55 PM68 °FMild.8 mph53%30.01 "HgN/A
6:25 PM68 °FMild.7 mph56%30.01 "HgN/A
5:55 PM68 °FMild.7 mph53%30.01 "HgN/A
4:25 PM70 °FPassing clouds.6 mph53%30.01 "HgN/A
3:55 PM70 °FMild.9 mph53%30.01 "HgN/A
3:25 PM68 °FPassing clouds.7 mph49%30.01 "HgN/A
2:55 PM68 °FMild.7 mph53%30.01 "HgN/A
2:25 PM68 °FMild.7 mph53%30.01 "HgN/A
1:55 PM68 °FPassing clouds.7 mph53%30.01 "HgN/A
1:25 PM68 °FPassing clouds.7 mph53%30.04 "HgN/A
12:55 PM66 °FPassing clouds.6 mph52%30.04 "HgN/A
12:25 PM64 °FScattered clouds.6 mph56%30.04 "HgN/A
11:55 AM66 °FMild.5 mph60%30.04 "HgN/A
11:25 AM64 °FMild.6 mph68%30.01 "HgN/A
10:55 AM64 °FPassing clouds.5 mph64%30.01 "HgN/A
10:25 AM61 °FCool.5 mph77%30.01 "HgN/A
9:55 AM61 °FPassing clouds.5 mph77%30.01 "HgN/A
9:25 AM59 °FPassing clouds.3 mph82%30.01 "HgN/A
Weather by CustomWeather, © 2014

See weather overviewHow to use our weather pages